Weather in Khotylevo

Russia / Bryansk Oblast     53°20′17″N   34°07′18″E
temp.,
°C
wind,
m/s
gust,
m/s
humid.,
%
clouds,
%
prec.,
mm/h
press.,
hPa
HPBL,
m
8 march, mon
mon800:00−5wsw5138797 0.0 1003313
03:00−5wsw6139357 0.0 1003363
06:00−7w5129434 0.0 1003330
09:00−7w5119323 0.0 1004486
12:00−4wnw588892 0.1 1006838
15:00−3wnw468496 0.3 1007914
18:00−6nnw478756 0.1 1008143
21:00−9nw349230 0.1 101171
9 march, tue
tue900:00−9nw369698 0.0 1012125
03:00−11nnw479794 0.1 1014190
06:00−13nnw349789 0.0 101678
09:00−12nnw469579 0.0 1018259
12:00−9nw468683 0.0 1019572
15:00−8nw567958 0.0 1020752
18:00−10nw34872 0.0 102093
21:00−13nw349113 0.0 102351
10 march, wed
wed1000:00−14nw23930 0.0 102423
03:00−14w22930 0.0 102521
06:00−13sw239275 0.0 102532
09:00−11sw359386 0.0 1025200
12:00−7wsw4791100 0.1 1025492
15:00−5w4790100 0.4 1025656
18:00−5w2491100 0.1 1024135
21:00−11ene6995100 0.9 1026246
11 march, thu
thu1100:00−12e489499 0.3 1027317
03:00−15e489497 0.3 1029259
06:00−17e479692 0.0 1029159
09:00−16ese469377 0.0 1030242
12:00−12ese468922 0.0 1029337
15:00−9se458848 0.0 1028410
18:00−11se3694100 0.0 1027153
21:00−12se4897100 0.1 1027193
12 march, fri
fri1200:00−13se4109793 0.0 1025220
03:00−11sse6138796 0.0 1023335
06:00−7sse71780100 0.0 1019571
09:00−5sse101882100 0.1 1016933
12:00−4s121994100 1.8 10121265
15:00−2s121994100 5.3 10091286
18:00−1s111894100 1.6 1006993
21:000ssw81398100 3.6 1005514